Time,TemperatureF,DewpointF,PressureIn,WindDirection,WindDirectionDegrees,WindSpeedMPH,WindSpeedGustMPH,Humidity,HourlyPrecipIn,Conditions,Clouds,dailyrainin,SoftwareType,DateUTC
2013-02-13 00:02:00,20.0,4.0,30.16,WNW,285,8.0,20.0,50,0.00,,,0.00,,2013-02-13 07:02:00,
2013-02-13 00:11:00,20.0,4.0,30.16,WNW,285,8.0,20.0,50,0.00,,,0.00,,2013-02-13 07:11:00,
2013-02-13 00:22:00,20.0,4.0,30.16,WNW,285,8.0,20.0,50,0.00,,,0.00,,2013-02-13 07:22:00,
2013-02-13 00:32:00,21.0,5.0,30.16,NW,309,11.0,31.0,50,0.00,,,0.00,,2013-02-13 07:32:00,
2013-02-13 00:41:00,21.0,5.0,30.16,NW,309,11.0,31.0,50,0.00,,,0.00,,2013-02-13 07:41:00,
2013-02-13 00:52:00,21.0,5.0,30.16,WNW,288,10.0,31.0,50,0.00,,,0.00,,2013-02-13 07:52:00,
2013-02-13 01:01:00,20.0,5.0,30.16,NNW,330,15.0,33.0,51,0.00,,,0.00,,2013-02-13 08:01:00,
2013-02-13 01:11:00,20.0,5.0,30.16,NNW,330,15.0,33.0,51,0.00,,,0.00,,2013-02-13 08:11:00,
2013-02-13 01:21:00,21.0,6.0,30.15,NW,304,17.0,43.0,51,0.00,,,0.00,,2013-02-13 08:21:00,
2013-02-13 01:32:00,20.0,5.0,30.14,WNW,302,11.0,34.0,52,0.00,,,0.00,,2013-02-13 08:32:00,
2013-02-13 01:43:00,20.0,5.0,30.14,WNW,302,11.0,34.0,52,0.00,,,0.00,,2013-02-13 08:43:00,
2013-02-13 01:52:00,21.0,6.0,30.14,West,259,15.0,33.0,52,0.00,,,0.00,,2013-02-13 08:52:00,
2013-02-13 02:01:00,21.0,6.0,30.13,West,279,12.0,28.0,52,0.00,,,0.00,,2013-02-13 09:01:00,
2013-02-13 02:11:00,21.0,6.0,30.13,West,279,12.0,28.0,52,0.00,,,0.00,,2013-02-13 09:11:00,
2013-02-13 02:21:00,22.0,7.0,30.12,WNW,302,9.0,23.0,52,0.00,,,0.00,,2013-02-13 09:21:00,
2013-02-13 02:31:00,22.0,7.0,30.11,SW,221,13.0,24.0,52,0.00,,,0.00,,2013-02-13 09:31:00,
2013-02-13 02:42:00,21.0,7.0,30.11,WNW,297,4.0,23.0,53,0.00,,,0.00,,2013-02-13 09:42:00,
2013-02-13 02:51:00,21.0,7.0,30.11,WNW,297,4.0,23.0,53,0.00,,,0.00,,2013-02-13 09:51:00,
2013-02-13 03:01:00,22.0,8.0,30.10,SW,219,3.0,22.0,53,0.00,,,0.00,,2013-02-13 10:01:00,
2013-02-13 03:11:00,22.0,7.0,30.09,NNW,336,5.0,18.0,52,0.00,,,0.00,,2013-02-13 10:11:00,
2013-02-13 03:21:00,22.0,7.0,30.09,NNW,336,5.0,18.0,52,0.00,,,0.00,,2013-02-13 10:21:00,
2013-02-13 03:32:00,22.0,6.0,30.09,WNW,284,7.0,26.0,50,0.00,,,0.00,,2013-02-13 10:32:00,
2013-02-13 03:42:00,22.0,7.0,30.08,West,266,11.0,31.0,51,0.00,,,0.00,,2013-02-13 10:42:00,
2013-02-13 03:51:00,22.0,7.0,30.08,West,266,11.0,31.0,51,0.00,,,0.00,,2013-02-13 10:51:00,
2013-02-13 04:01:00,22.0,7.0,30.07,WSW,253,19.0,39.0,51,0.00,,,0.00,,2013-02-13 11:01:00,
2013-02-13 04:11:00,22.0,7.0,30.07,WSW,253,19.0,39.0,51,0.00,,,0.00,,2013-02-13 11:11:00,
2013-02-13 04:22:00,23.0,8.0,30.07,WNW,300,18.0,33.0,51,0.00,,,0.00,,2013-02-13 11:22:00,
2013-02-13 04:32:00,23.0,7.0,30.07,WNW,282,16.0,35.0,50,0.00,,,0.00,,2013-02-13 11:32:00,
2013-02-13 04:42:00,22.0,7.0,30.06,WNW,295,17.0,34.0,51,0.00,,,0.00,,2013-02-13 11:42:00,
2013-02-13 04:52:00,22.0,7.0,30.06,WNW,295,17.0,34.0,51,0.00,,,0.00,,2013-02-13 11:52:00,
2013-02-13 05:02:00,22.0,7.0,30.06,WNW,293,15.0,35.0,52,0.00,,,0.00,,2013-02-13 12:02:00,
2013-02-13 05:11:00,22.0,7.0,30.06,WNW,293,15.0,35.0,52,0.00,,,0.00,,2013-02-13 12:11:00,
2013-02-13 05:22:00,22.0,7.0,30.06,WNW,284,13.0,37.0,51,0.00,,,0.00,,2013-02-13 12:22:00,
2013-02-13 05:32:00,23.0,8.0,30.05,NW,317,17.0,34.0,51,0.00,,,0.00,,2013-02-13 12:32:00,
2013-02-13 05:42:00,23.0,8.0,30.05,NW,317,17.0,34.0,51,0.00,,,0.00,,2013-02-13 12:42:00,
2013-02-13 05:52:00,23.0,7.0,30.06,WNW,293,15.0,32.0,50,0.00,,,0.00,,2013-02-13 12:52:00,
2013-02-13 06:02:00,23.0,7.0,30.05,SW,231,15.0,37.0,49,0.00,,,0.00,,2013-02-13 13:02:00,
2013-02-13 06:11:00,23.0,7.0,30.05,SW,231,15.0,37.0,49,0.00,,,0.00,,2013-02-13 13:11:00,
2013-02-13 06:21:00,23.0,6.0,30.03,WNW,289,15.0,40.0,48,0.00,,,0.00,,2013-02-13 13:21:00,
2013-02-13 06:32:00,23.0,6.0,30.04,NW,304,14.0,28.0,47,0.00,,,0.00,,2013-02-13 13:32:00,
2013-02-13 06:41:00,24.0,5.0,30.03,WNW,290,17.0,32.0,44,0.00,,,0.00,,2013-02-13 13:41:00,
2013-02-13 06:51:00,24.0,5.0,30.03,WNW,290,17.0,32.0,44,0.00,,,0.00,,2013-02-13 13:51:00,
2013-02-13 07:01:00,25.0,5.0,30.01,West,270,8.0,22.0,42,0.00,,,0.00,,2013-02-13 14:01:00,
2013-02-13 07:11:00,25.0,5.0,30.01,West,270,8.0,22.0,42,0.00,,,0.00,,2013-02-13 14:11:00,
2013-02-13 07:21:00,25.0,5.0,30.02,East,101,8.0,21.0,42,0.00,,,0.00,,2013-02-13 14:21:00,
2013-02-13 07:31:00,24.0,6.0,30.03,West,277,19.0,35.0,45,0.00,,,0.00,,2013-02-13 14:31:00,
2013-02-13 07:42:00,24.0,6.0,30.03,West,277,19.0,35.0,45,0.00,,,0.00,,2013-02-13 14:42:00,
2013-02-13 07:52:00,24.0,6.0,30.03,West,277,19.0,35.0,45,0.00,,,0.00,,2013-02-13 14:52:00,
2013-02-13 08:01:00,25.0,7.0,30.03,WNW,289,14.0,32.0,45,0.00,,,0.00,,2013-02-13 15:01:00,
2013-02-13 08:11:00,25.0,7.0,30.04,WNW,300,15.0,33.0,45,0.00,,,0.00,,2013-02-13 15:11:00,
2013-02-13 08:21:00,25.0,7.0,30.04,WNW,300,15.0,33.0,45,0.00,,,0.00,,2013-02-13 15:21:00,
2013-02-13 08:32:00,25.0,7.0,30.04,WNW,288,18.0,44.0,45,0.00,,,0.00,,2013-02-13 15:32:00,
2013-02-13 08:42:00,25.0,7.0,30.04,WNW,288,18.0,44.0,45,0.00,,,0.00,,2013-02-13 15:42:00,
2013-02-13 08:51:00,25.0,6.0,30.04,West,262,15.0,37.0,44,0.00,,,0.00,,2013-02-13 15:51:00,
2013-02-13 09:01:00,27.0,7.0,30.02,West,281,10.0,32.0,42,0.00,,,0.00,,2013-02-13 16:01:00,
2013-02-13 09:11:00,27.0,7.0,30.01,WNW,300,20.0,37.0,42,0.00,,,0.00,,2013-02-13 16:11:00,
2013-02-13 09:21:00,27.0,7.0,30.01,WNW,300,20.0,37.0,42,0.00,,,0.00,,2013-02-13 16:21:00,
2013-02-13 09:31:00,26.0,7.0,30.01,West,279,19.0,39.0,43,0.00,,,0.00,,2013-02-13 16:31:00,
2013-02-13 09:42:00,26.0,7.0,30.01,West,279,19.0,39.0,43,0.00,,,0.00,,2013-02-13 16:42:00,
2013-02-13 09:51:00,26.0,7.0,30.03,West,276,22.0,45.0,43,0.00,,,0.00,,2013-02-13 16:51:00,
2013-02-13 10:01:00,25.0,6.0,30.01,NW,325,29.0,52.0,44,0.00,,,0.00,,2013-02-13 17:01:00,
2013-02-13 10:11:00,25.0,6.0,30.01,NW,325,29.0,52.0,44,0.00,,,0.00,,2013-02-13 17:11:00,
2013-02-13 10:21:00,25.0,7.0,30.02,West,274,27.0,47.0,46,0.00,,,0.00,,2013-02-13 17:21:00,
2013-02-13 10:32:00,25.0,8.0,30.02,NNW,342,25.0,53.0,48,0.00,,,0.00,,2013-02-13 17:32:00,
2013-02-13 10:41:00,25.0,8.0,30.02,NNW,342,25.0,53.0,48,0.00,,,0.00,,2013-02-13 17:41:00,
2013-02-13 10:52:00,25.0,8.0,30.03,WNW,302,28.0,48.0,48,0.00,,,0.00,,2013-02-13 17:52:00,
2013-02-13 11:01:00,25.0,9.0,30.02,WNW,289,29.0,61.0,49,0.00,,,0.00,,2013-02-13 18:01:00,
2013-02-13 11:11:00,25.0,9.0,30.02,WNW,289,29.0,61.0,49,0.00,,,0.00,,2013-02-13 18:11:00,
2013-02-13 11:23:00,25.0,9.0,30.03,WNW,297,22.0,53.0,50,0.00,,,0.00,,2013-02-13 18:23:00,
2013-02-13 11:32:00,25.0,9.0,30.02,WNW,294,26.0,47.0,50,0.00,,,0.00,,2013-02-13 18:32:00,
2013-02-13 11:42:00,25.0,9.0,30.02,WNW,294,26.0,47.0,50,0.00,,,0.00,,2013-02-13 18:42:00,
2013-02-13 11:52:00,26.0,9.0,30.04,WNW,285,25.0,47.0,49,0.00,,,0.00,,2013-02-13 18:52:00,
2013-02-13 12:01:00,26.0,9.0,30.05,WNW,302,15.0,36.0,48,0.00,,,0.00,,2013-02-13 19:01:00,
2013-02-13 12:11:00,26.0,9.0,30.07,WNW,302,15.0,45.0,48,0.00,,,0.00,,2013-02-13 19:11:00,
2013-02-13 12:21:00,26.0,9.0,30.07,WNW,302,15.0,45.0,48,0.00,,,0.00,,2013-02-13 19:21:00,
2013-02-13 12:32:00,27.0,10.0,30.10,NNE,27,18.0,33.0,48,0.00,,,0.00,,2013-02-13 19:32:00,
2013-02-13 12:41:00,27.0,10.0,30.10,NNE,27,18.0,33.0,48,0.00,,,0.00,,2013-02-13 19:41:00,
2013-02-13 12:51:00,28.0,10.0,30.08,NW,321,19.0,41.0,47,0.00,,,0.00,,2013-02-13 19:51:00,
2013-02-13 13:02:00,28.0,9.0,30.06,WSW,255,21.0,40.0,45,0.00,,,0.00,,2013-02-13 20:02:00,
2013-02-13 13:11:00,27.0,9.0,30.06,West,279,15.0,38.0,47,0.00,,,0.00,,2013-02-13 20:11:00,
2013-02-13 13:21:00,27.0,9.0,30.06,West,279,15.0,38.0,47,0.00,,,0.00,,2013-02-13 20:21:00,
2013-02-13 13:31:00,27.0,9.0,30.05,WNW,298,22.0,42.0,47,0.00,,,0.00,,2013-02-13 20:31:00,
2013-02-13 13:42:00,27.0,9.0,30.07,NW,304,15.0,35.0,47,0.00,,,0.00,,2013-02-13 20:42:00,
2013-02-13 13:52:00,27.0,9.0,30.07,NW,304,15.0,35.0,47,0.00,,,0.00,,2013-02-13 20:52:00,
2013-02-13 14:01:00,27.0,10.0,30.08,NNW,329,10.0,24.0,48,0.00,,,0.00,,2013-02-13 21:01:00,
2013-02-13 14:11:00,27.0,10.0,30.08,NNW,329,10.0,24.0,48,0.00,,,0.00,,2013-02-13 21:11:00,
2013-02-13 14:21:00,27.0,10.0,30.07,NW,311,12.0,25.0,48,0.00,,,0.00,,2013-02-13 21:21:00,
2013-02-13 14:31:00,27.0,10.0,30.07,NW,311,12.0,25.0,48,0.00,,,0.00,,2013-02-13 21:31:00,
2013-02-13 14:42:00,27.0,10.0,30.07,NW,311,12.0,25.0,48,0.00,,,0.00,,2013-02-13 21:42:00,
2013-02-13 14:52:00,28.0,12.0,30.06,WNW,290,24.0,41.0,50,0.00,,,0.00,,2013-02-13 21:52:00,
2013-02-13 15:02:00,28.0,13.0,30.06,West,266,16.0,46.0,52,0.00,,,0.00,,2013-02-13 22:02:00,
2013-02-13 15:11:00,28.0,13.0,30.06,West,266,16.0,46.0,52,0.00,,,0.00,,2013-02-13 22:11:00,
2013-02-13 15:21:00,28.0,13.0,30.06,WNW,285,22.0,41.0,53,0.00,,,0.00,,2013-02-13 22:21:00,
2013-02-13 15:31:00,28.0,11.0,30.05,NW,307,26.0,48.0,49,0.00,,,0.00,,2013-02-13 22:31:00,
2013-02-13 15:42:00,28.0,11.0,30.05,NW,307,26.0,48.0,49,0.00,,,0.00,,2013-02-13 22:42:00,
2013-02-13 15:52:00,28.0,11.0,30.05,NW,307,26.0,48.0,49,0.00,,,0.00,,2013-02-13 22:52:00,
2013-02-13 16:01:00,29.0,11.0,30.05,WSW,253,28.0,57.0,47,0.00,,,0.00,,2013-02-13 23:01:00,
2013-02-13 16:11:00,29.0,11.0,30.05,WSW,253,28.0,57.0,47,0.00,,,0.00,,2013-02-13 23:11:00,
2013-02-13 16:21:00,30.0,12.0,30.03,WNW,291,20.0,48.0,46,0.00,,,0.00,,2013-02-13 23:21:00,
2013-02-13 16:32:00,30.0,11.0,30.03,WNW,297,21.0,45.0,45,0.00,,,0.00,,2013-02-13 23:32:00,
2013-02-13 16:42:00,30.0,11.0,30.03,WNW,297,21.0,45.0,45,0.00,,,0.00,,2013-02-13 23:42:00,
2013-02-13 16:52:00,30.0,11.0,30.03,West,271,33.0,56.0,45,0.00,,,0.00,,2013-02-13 23:52:00,
2013-02-13 17:02:00,29.0,11.0,30.03,West,276,29.0,54.0,46,0.00,,,0.00,,2013-02-14 00:02:00,
2013-02-13 17:11:00,29.0,11.0,30.03,West,276,29.0,54.0,46,0.00,,,0.00,,2013-02-14 00:11:00,
2013-02-13 17:21:00,29.0,11.0,30.03,West,276,29.0,54.0,46,0.00,,,0.00,,2013-02-14 00:21:00,
2013-02-13 17:32:00,28.0,10.0,30.04,WNW,295,27.0,50.0,47,0.00,,,0.00,,2013-02-14 00:32:00,
2013-02-13 17:42:00,28.0,10.0,30.04,WNW,295,27.0,50.0,47,0.00,,,0.00,,2013-02-14 00:42:00,
2013-02-13 17:52:00,28.0,11.0,30.05,WNW,288,14.0,39.0,48,0.00,,,0.00,,2013-02-14 00:52:00,
2013-02-13 18:01:00,28.0,11.0,30.05,WNW,288,14.0,39.0,48,0.00,,,0.00,,2013-02-14 01:01:00,
2013-02-13 18:11:00,28.0,11.0,30.05,WNW,288,14.0,39.0,48,0.00,,,0.00,,2013-02-14 01:11:00,
2013-02-13 18:21:00,27.0,10.0,30.04,NW,311,22.0,43.0,49,0.00,,,0.00,,2013-02-14 01:21:00,
2013-02-13 18:31:00,28.0,11.0,30.04,WNW,295,18.0,39.0,48,0.00,,,0.00,,2013-02-14 01:31:00,
2013-02-13 18:42:00,28.0,11.0,30.04,WNW,295,18.0,39.0,48,0.00,,,0.00,,2013-02-14 01:42:00,
2013-02-13 18:52:00,28.0,10.0,30.04,WNW,293,24.0,41.0,47,0.00,,,0.00,,2013-02-14 01:52:00,
2013-02-13 19:01:00,28.0,10.0,30.03,WNW,297,17.0,44.0,46,0.00,,,0.00,,2013-02-14 02:01:00,
2013-02-13 19:11:00,28.0,10.0,30.03,NW,309,30.0,55.0,46,0.00,,,0.00,,2013-02-14 02:11:00,
2013-02-13 19:21:00,28.0,10.0,30.03,NW,309,30.0,55.0,46,0.00,,,0.00,,2013-02-14 02:21:00,
2013-02-13 19:31:00,27.0,10.0,30.05,WNW,302,15.0,63.0,49,0.00,,,0.00,,2013-02-14 02:31:00,
2013-02-13 19:41:00,27.0,10.0,30.05,WNW,302,15.0,63.0,49,0.00,,,0.00,,2013-02-14 02:41:00,
2013-02-13 19:52:00,27.0,10.0,30.05,WNW,302,15.0,63.0,49,0.00,,,0.00,,2013-02-14 02:52:00,
2013-02-13 20:02:00,28.0,10.0,30.05,West,281,31.0,53.0,47,0.00,,,0.00,,2013-02-14 03:02:00,
2013-02-13 20:11:00,28.0,10.0,30.05,West,281,31.0,53.0,47,0.00,,,0.00,,2013-02-14 03:11:00,
2013-02-13 20:21:00,27.0,11.0,30.05,NW,304,21.0,51.0,50,0.00,,,0.00,,2013-02-14 03:21:00,
2013-02-13 20:31:00,27.0,11.0,30.04,West,279,16.0,43.0,50,0.00,,,0.00,,2013-02-14 03:31:00,
2013-02-13 20:42:00,27.0,11.0,30.04,West,279,16.0,43.0,50,0.00,,,0.00,,2013-02-14 03:42:00,
2013-02-13 20:52:00,28.0,11.0,30.05,NW,315,27.0,41.0,48,0.00,,,0.00,,2013-02-14 03:52:00,
2013-02-13 21:01:00,27.0,13.0,30.05,WNW,286,18.0,35.0,55,0.00,,,0.00,,2013-02-14 04:01:00,
2013-02-13 21:12:00,27.0,11.0,30.05,WNW,297,24.0,41.0,51,0.00,,,0.00,,2013-02-14 04:12:00,
2013-02-13 21:21:00,27.0,11.0,30.05,WNW,297,24.0,41.0,51,0.00,,,0.00,,2013-02-14 04:21:00,
2013-02-13 21:31:00,27.0,11.0,30.04,West,279,21.0,43.0,50,0.00,,,0.00,,2013-02-14 04:31:00,
2013-02-13 21:41:00,27.0,11.0,30.04,West,279,21.0,43.0,50,0.00,,,0.00,,2013-02-14 04:41:00,
2013-02-13 21:52:00,27.0,11.0,30.04,West,279,21.0,43.0,50,0.00,,,0.00,,2013-02-14 04:52:00,
2013-02-13 22:01:00,28.0,11.0,30.04,WNW,295,28.0,46.0,49,0.00,,,0.00,,2013-02-14 05:01:00,
2013-02-13 22:11:00,28.0,11.0,30.04,WNW,295,28.0,46.0,49,0.00,,,0.00,,2013-02-14 05:11:00,
2013-02-13 22:22:00,28.0,10.0,30.04,WNW,297,21.0,44.0,46,0.00,,,0.00,,2013-02-14 05:22:00,
2013-02-13 22:32:00,28.0,9.0,30.03,WNW,295,20.0,50.0,44,0.00,,,0.00,,2013-02-14 05:32:00,
2013-02-13 22:41:00,28.0,9.0,30.03,WNW,295,20.0,50.0,44,0.00,,,0.00,,2013-02-14 05:41:00,
2013-02-13 22:52:00,28.0,10.0,30.04,WNW,293,30.0,48.0,47,0.00,,,0.00,,2013-02-14 05:52:00,
2013-02-13 23:02:00,28.0,10.0,30.03,West,281,20.0,43.0,46,0.00,,,0.00,,2013-02-14 06:02:00,
2013-02-13 23:11:00,28.0,9.0,30.02,West,269,19.0,53.0,44,0.00,,,0.00,,2013-02-14 06:11:00,
2013-02-13 23:21:00,28.0,9.0,30.02,West,269,19.0,53.0,44,0.00,,,0.00,,2013-02-14 06:21:00,
2013-02-13 23:31:00,28.0,9.0,30.02,NNW,346,22.0,46.0,45,0.00,,,0.00,,2013-02-14 06:31:00,
2013-02-13 23:42:00,28.0,9.0,30.02,NNW,346,22.0,46.0,45,0.00,,,0.00,,2013-02-14 06:42:00,
2013-02-13 23:52:00,29.0,9.0,30.03,WNW,299,20.0,50.0,43,0.00,,,0.00,,2013-02-14 06:52:00,